time, beta470, beta532, beta650
yyyy/mm/dd HH:MM:SS.fff, counts, counts, counts
2023/06/06 00:00:01.053, 112, 133, 86
2023/06/06 00:00:02.174, 109, 133, 91
2023/06/06 00:00:03.310, 110, 133, 89
2023/06/06 00:00:04.430, 111, 132, 86
2023/06/06 00:00:05.565, 112, 132, 88
2023/06/06 00:00:06.701, 112, 134, 87
2023/06/06 00:00:07.821, 110, 135, 90
2023/06/06 00:00:08.957, 108, 132, 86
2023/06/06 00:00:10.077, 112, 140, 89
2023/06/06 00:00:11.213, 111, 145, 90
2023/06/06 00:00:12.349, 112, 133, 87
2023/06/06 00:00:13.469, 119, 138, 87
2023/06/06 00:00:14.605, 117, 134, 92
2023/06/06 00:00:15.725, 117, 134, 92
2023/06/06 00:00:16.861, 115, 137, 91
2023/06/06 00:00:17.997, 118, 144, 93
2023/06/06 00:00:19.117, 121, 147, 94
2023/06/06 00:00:20.253, 117, 145, 92
2023/06/06 00:00:21.388, 119, 152, 94
2023/06/06 00:00:22.509, 123, 155, 99
2023/06/06 00:00:23.643, 122, 156, 99
2023/06/06 00:00:24.764, 124, 154, 102
2023/06/06 00:00:25.900, 121, 152, 102
2023/06/06 00:00:27.036, 121, 152, 101
2023/06/06 00:00:28.156, 121, 150, 101
2023/06/06 00:00:29.292, 121, 153, 100
2023/06/06 00:00:30.412, 121, 148, 99
2023/06/06 00:00:31.548, 119, 150, 102
2023/06/06 00:00:32.684, 122, 147, 98
2023/06/06 00:00:33.803, 119, 149, 96
2023/06/06 00:00:34.940, 118, 144, 96
2023/06/06 00:00:36.060, 119, 147, 96
2023/06/06 00:00:37.196, 114, 147, 97
2023/06/06 00:00:38.331, 116, 146, 95
2023/06/06 00:00:39.452, 116, 161, 95
2023/06/06 00:00:40.586, 121, 142, 97
2023/06/06 00:00:41.723, 116, 142, 94
2023/06/06 00:00:42.843, 113, 141, 94
2023/06/06 00:00:43.979, 113, 140, 91
2023/06/06 00:00:45.099, 113, 141, 91
2023/06/06 00:00:46.235, 110, 142, 91
2023/06/06 00:00:47.371, 111, 137, 93
2023/06/06 00:00:48.491, 111, 136, 89
2023/06/06 00:00:49.627, 112, 132, 90
2023/06/06 00:00:50.747, 107, 148, 91
2023/06/06 00:00:51.883, 112, 131, 90
2023/06/06 00:00:53.019, 110, 137, 90
2023/06/06 00:00:54.139, 108, 129, 91
2023/06/06 00:00:55.274, 110, 129, 90
2023/06/06 00:00:56.395, 107, 126, 91
2023/06/06 00:00:57.530, 110, 128, 88
2023/06/06 00:00:58.666, 109, 127, 86
2023/06/06 00:00:59.786, 107, 127, 88
2023/06/06 00:01:00.922, 106, 127, 83
2023/06/06 00:01:02.042, 106, 123, 84
2023/06/06 00:01:03.178, 106, 124, 85
2023/06/06 00:01:04.314, 103, 123, 85
2023/06/06 00:01:05.434, 103, 125, 87
2023/06/06 00:01:06.570, 105, 122, 85
2023/06/06 00:01:07.689, 104, 124, 93
2023/06/06 00:01:08.826, 105, 119, 83
2023/06/06 00:01:09.961, 104, 119, 82
2023/06/06 00:01:11.081, 100, 127, 83
2023/06/06 00:01:12.217, 101, 123, 82
2023/06/06 00:01:13.337, 101, 121, 81
2023/06/06 00:01:14.473, 101, 116, 81
2023/06/06 00:01:15.609, 102, 116, 80
2023/06/06 00:01:16.729, 106, 115, 82
2023/06/06 00:01:17.865, 101, 119, 81
2023/06/06 00:01:18.985, 96, 115, 80
2023/06/06 00:01:20.121, 101, 114, 78
2023/06/06 00:01:21.257, 99, 113, 81
2023/06/06 00:01:22.377, 100, 112, 80
2023/06/06 00:01:23.512, 99, 114, 78
2023/06/06 00:01:24.632, 98, 114, 79
2023/06/06 00:01:25.769, 98, 108, 79
2023/06/06 00:01:26.889, 98, 110, 80
2023/06/06 00:01:28.024, 98, 112, 80
2023/06/06 00:01:29.145, 99, 109, 78
2023/06/06 00:01:30.280, 98, 109, 78
2023/06/06 00:01:31.400, 96, 106, 77
2023/06/06 00:01:32.536, 98, 110, 77
2023/06/06 00:01:33.672, 95, 107, 75
2023/06/06 00:01:34.792, 94, 109, 76
2023/06/06 00:01:35.928, 97, 106, 78
2023/06/06 00:01:37.047, 96, 107, 75
2023/06/06 00:01:38.184, 94, 107, 78
2023/06/06 00:01:39.304, 93, 108, 76
2023/06/06 00:01:40.439, 93, 107, 73
2023/06/06 00:01:41.559, 95, 107, 76
2023/06/06 00:01:42.696, 94, 107, 75
2023/06/06 00:01:43.831, 95, 105, 75
2023/06/06 00:01:44.952, 93, 105, 74
2023/06/06 00:01:46.087, 90, 103, 76
2023/06/06 00:01:47.207, 91, 103, 73
2023/06/06 00:01:48.343, 94, 104, 73
2023/06/06 00:01:49.463, 93, 101, 72
2023/06/06 00:01:50.599, 91, 104, 74
2023/06/06 00:01:51.719, 91, 102, 73
2023/06/06 00:01:52.855, 93, 101, 74
2023/06/06 00:01:53.990, 91, 101, 75
2023/06/06 00:01:55.111, 92, 99, 73
2023/06/06 00:01:56.247, 90, 101, 71
2023/06/06 00:01:57.366, 91, 100, 72
2023/06/06 00:01:58.502, 91, 101, 72
2023/06/06 00:01:59.623, 92, 100, 70
2023/06/06 00:02:00.759, 90, 100, 75
2023/06/06 00:02:01.878, 91, 97, 71
2023/06/06 00:02:03.014, 92, 100, 70
2023/06/06 00:02:04.134, 90, 97, 74
2023/06/06 00:02:05.270, 90, 97, 71
2023/06/06 00:02:06.390, 90, 101, 71
2023/06/06 00:02:07.526, 90, 101, 71
2023/06/06 00:02:08.646, 91, 96, 69
2023/06/06 00:02:09.782, 91, 97, 68
2023/06/06 00:02:10.902, 88, 96, 70
2023/06/06 00:02:12.038, 91, 97, 72
2023/06/06 00:02:13.158, 89, 96, 70
2023/06/06 00:02:14.293, 87, 96, 74
2023/06/06 00:02:15.430, 90, 96, 72
2023/06/06 00:02:16.550, 90, 96, 71
2023/06/06 00:02:17.685, 87, 95, 71
2023/06/06 00:02:18.805, 87, 95, 69
2023/06/06 00:02:19.941, 88, 95, 70
2023/06/06 00:02:21.061, 87, 97, 69
2023/06/06 00:02:22.196, 87, 96, 67
2023/06/06 00:02:23.317, 85, 94, 68
2023/06/06 00:02:24.453, 110, 93, 70
2023/06/06 00:02:25.573, 86, 93, 69
2023/06/06 00:02:26.709, 87, 94, 70
2023/06/06 00:02:27.829, 88, 94, 69
2023/06/06 00:02:28.948, 84, 94, 68
2023/06/06 00:02:30.085, 88, 94, 69
2023/06/06 00:02:31.205, 85, 92, 69
2023/06/06 00:02:32.340, 87, 93, 69
2023/06/06 00:02:33.460, 87, 91, 69
2023/06/06 00:02:34.596, 87, 93, 66
2023/06/06 00:02:35.716, 84, 93, 65
2023/06/06 00:02:36.852, 86, 92, 67
2023/06/06 00:02:37.972, 86, 90, 68
2023/06/06 00:02:39.108, 87, 91, 69
2023/06/06 00:02:40.228, 85, 92, 69
2023/06/06 00:02:41.364, 84, 94, 66
2023/06/06 00:02:42.484, 83, 89, 67
2023/06/06 00:02:43.620, 87, 89, 68
2023/06/06 00:02:44.740, 84, 89, 67
2023/06/06 00:02:45.876, 84, 89, 67
2023/06/06 00:02:46.995, 85, 93, 68
2023/06/06 00:02:48.131, 87, 92, 65
2023/06/06 00:02:49.252, 84, 89, 68
2023/06/06 00:02:50.387, 89, 92, 73
2023/06/06 00:02:51.507, 84, 88, 64
2023/06/06 00:02:52.643, 86, 89, 66
2023/06/06 00:02:53.763, 85, 90, 66
2023/06/06 00:02:54.899, 85, 87, 67
2023/06/06 00:02:56.018, 85, 89, 65
2023/06/06 00:02:57.155, 86, 89, 64
2023/06/06 00:02:58.275, 84, 91, 66
2023/06/06 00:02:59.411, 85, 88, 66
2023/06/06 00:03:00.530, 86, 86, 66
2023/06/06 00:03:01.667, 83, 91, 67
2023/06/06 00:03:02.787, 85, 86, 65
2023/06/06 00:03:03.923, 86, 90, 66
2023/06/06 00:03:05.042, 87, 89, 65
2023/06/06 00:03:06.178, 82, 87, 68
2023/06/06 00:03:07.298, 84, 87, 65
2023/06/06 00:03:08.434, 82, 87, 64
2023/06/06 00:03:09.554, 84, 86, 70
2023/06/06 00:03:10.690, 87, 88, 65
2023/06/06 00:03:11.810, 87, 89, 66
2023/06/06 00:03:12.946, 86, 89, 65
2023/06/06 00:03:14.065, 83, 89, 65
2023/06/06 00:03:15.202, 83, 87, 64
2023/06/06 00:03:16.322, 81, 88, 67
2023/06/06 00:03:17.458, 82, 86, 65
2023/06/06 00:03:18.594, 83, 86, 65
2023/06/06 00:03:19.714, 81, 88, 65
2023/06/06 00:03:20.850, 83, 87, 65
2023/06/06 00:03:21.969, 81, 83, 66
2023/06/06 00:03:23.104, 84, 87, 66
2023/06/06 00:03:24.225, 83, 87, 64
2023/06/06 00:03:25.345, 82, 87, 64
2023/06/06 00:03:26.481, 81, 88, 66
2023/06/06 00:03:27.601, 84, 88, 65
2023/06/06 00:03:28.737, 83, 86, 65
2023/06/06 00:03:29.857, 83, 86, 64
2023/06/06 00:03:30.993, 83, 87, 67
2023/06/06 00:03:32.112, 82, 86, 66
2023/06/06 00:03:33.249, 83, 86, 64
2023/06/06 00:03:34.369, 82, 85, 62
2023/06/06 00:03:35.504, 84, 88, 65
2023/06/06 00:03:36.624, 82, 86, 63
2023/06/06 00:03:37.760, 87, 85, 63
2023/06/06 00:03:38.880, 80, 87, 67
2023/06/06 00:03:40.016, 83, 88, 67
2023/06/06 00:03:41.136, 82, 83, 66
2023/06/06 00:03:42.272, 83, 88, 67
2023/06/06 00:03:43.392, 81, 86, 63
2023/06/06 00:03:44.528, 83, 90, 63
2023/06/06 00:03:45.648, 84, 87, 66
2023/06/06 00:03:46.784, 85, 87, 65
2023/06/06 00:03:47.904, 82, 86, 64
2023/06/06 00:03:49.040, 82, 88, 64
2023/06/06 00:03:50.160, 82, 84, 62
2023/06/06 00:03:51.295, 81, 84, 66
2023/06/06 00:03:52.416, 82, 86, 63
2023/06/06 00:03:53.552, 80, 86, 65
2023/06/06 00:03:54.671, 82, 85, 63
2023/06/06 00:03:55.807, 82, 83, 63
2023/06/06 00:03:56.927, 82, 86, 63
2023/06/06 00:03:58.063, 82, 84, 64
2023/06/06 00:03:59.183, 81, 85, 64
2023/06/06 00:04:00.319, 84, 85, 67
2023/06/06 00:04:01.439, 83, 86, 63
2023/06/06 00:04:02.574, 82, 87, 63
2023/06/06 00:04:03.694, 84, 92, 66
2023/06/06 00:04:04.831, 83, 84, 63
2023/06/06 00:04:05.951, 81, 86, 66
2023/06/06 00:04:07.087, 83, 84, 64
2023/06/06 00:04:08.206, 83, 87, 62
2023/06/06 00:04:09.342, 82, 86, 64
2023/06/06 00:04:10.462, 80, 86, 64
2023/06/06 00:04:11.598, 83, 84, 64
2023/06/06 00:04:12.718, 82, 85, 65
2023/06/06 00:04:13.854, 81, 83, 62
2023/06/06 00:04:14.974, 81, 86, 64
2023/06/06 00:04:16.110, 81, 85, 62
2023/06/06 00:04:17.230, 82, 83, 64
2023/06/06 00:04:18.366, 80, 84, 64
2023/06/06 00:04:19.486, 81, 83, 62
2023/06/06 00:04:20.622, 81, 83, 63
2023/06/06 00:04:21.741, 80, 85, 64
2023/06/06 00:04:22.878, 82, 84, 62
2023/06/06 00:04:23.998, 82, 83, 63
2023/06/06 00:04:25.134, 80, 84, 64
2023/06/06 00:04:26.253, 84, 84, 65
2023/06/06 00:04:27.389, 83, 82, 62
2023/06/06 00:04:28.509, 81, 86, 61
2023/06/06 00:04:29.645, 80, 84, 61
2023/06/06 00:04:30.765, 81, 85, 62
2023/06/06 00:04:31.901, 81, 85, 63
2023/06/06 00:04:33.021, 82, 85, 63
2023/06/06 00:04:34.157, 84, 84, 60
2023/06/06 00:04:35.277, 83, 83, 61
2023/06/06 00:04:36.413, 83, 83, 61
2023/06/06 00:04:37.533, 78, 84, 61
2023/06/06 00:04:38.669, 81, 83, 62
2023/06/06 00:04:39.789, 82, 84, 63
2023/06/06 00:04:40.925, 84, 84, 63
2023/06/06 00:04:42.044, 81, 86, 62
2023/06/06 00:04:43.180, 80, 83, 64
2023/06/06 00:04:44.300, 80, 84, 62
2023/06/06 00:04:45.436, 83, 83, 64
2023/06/06 00:04:46.556, 83, 84, 64
2023/06/06 00:04:47.692, 80, 84, 63
2023/06/06 00:04:48.812, 80, 83, 62
2023/06/06 00:04:49.947, 82, 85, 62
2023/06/06 00:04:51.068, 80, 84, 65
2023/06/06 00:04:52.203, 82, 83, 62
2023/06/06 00:04:53.324, 84, 84, 62
2023/06/06 00:04:54.460, 81, 85, 63
2023/06/06 00:04:55.580, 80, 86, 65
2023/06/06 00:04:56.715, 79, 84, 62
2023/06/06 00:04:57.836, 79, 81, 63
2023/06/06 00:04:58.971, 83, 83, 63
2023/06/06 00:05:00.091, 81, 85, 62
2023/06/06 00:05:01.227, 81, 84, 63
2023/06/06 00:05:02.347, 81, 83, 63
2023/06/06 00:05:03.482, 82, 82, 63
2023/06/06 00:05:04.603, 82, 82, 62
2023/06/06 00:05:05.739, 80, 83, 62
2023/06/06 00:05:06.859, 81, 81, 61
2023/06/06 00:05:07.995, 82, 82, 62
2023/06/06 00:05:09.115, 80, 82, 63
2023/06/06 00:05:10.251, 82, 83, 65
2023/06/06 00:05:11.371, 82, 86, 63
2023/06/06 00:05:12.507, 80, 84, 62
2023/06/06 00:05:13.627, 82, 84, 63
2023/06/06 00:05:14.762, 78, 82, 63
2023/06/06 00:05:15.883, 82, 82, 64
2023/06/06 00:05:17.018, 80, 82, 64
2023/06/06 00:05:18.138, 82, 82, 63
2023/06/06 00:05:19.274, 81, 81, 62
2023/06/06 00:05:20.394, 82, 85, 60
2023/06/06 00:05:21.530, 79, 81, 63
2023/06/06 00:05:22.650, 78, 82, 64
2023/06/06 00:05:23.786, 82, 82, 63
2023/06/06 00:05:24.906, 79, 82, 62
2023/06/06 00:05:26.042, 80, 85, 66
2023/06/06 00:05:27.161, 80, 83, 62
2023/06/06 00:05:28.298, 83, 84, 60
2023/06/06 00:05:29.418, 81, 85, 61
2023/06/06 00:05:30.553, 83, 81, 64
2023/06/06 00:05:31.673, 79, 83, 63
2023/06/06 00:05:32.809, 81, 83, 62
2023/06/06 00:05:33.929, 79, 85, 63
2023/06/06 00:05:35.065, 80, 84, 61
2023/06/06 00:05:36.185, 80, 82, 60
2023/06/06 00:05:37.321, 81, 81, 62
2023/06/06 00:05:38.441, 83, 84, 65
2023/06/06 00:05:39.576, 80, 83, 62
2023/06/06 00:05:40.697, 81, 85, 59
2023/06/06 00:05:41.833, 80, 84, 63
2023/06/06 00:05:42.953, 80, 83, 63
2023/06/06 00:05:44.089, 82, 84, 63
2023/06/06 00:05:45.209, 80, 85, 63
2023/06/06 00:05:46.345, 81, 81, 62
2023/06/06 00:05:47.465, 81, 83, 62
2023/06/06 00:05:48.600, 81, 81, 64
2023/06/06 00:05:49.721, 80, 84, 65
2023/06/06 00:05:50.856, 82, 84, 62
2023/06/06 00:05:51.976, 80, 79, 62
2023/06/06 00:05:53.112, 79, 83, 61
2023/06/06 00:05:54.232, 81, 83, 62
2023/06/06 00:05:55.368, 80, 83, 64
2023/06/06 00:05:56.488, 83, 84, 61
2023/06/06 00:05:57.624, 84, 82, 60
2023/06/06 00:05:58.743, 84, 85, 62
2023/06/06 00:05:59.880, 84, 83, 63
2023/06/06 00:06:00.999, 81, 80, 62
2023/06/06 00:06:02.136, 82, 83, 63
2023/06/06 00:06:03.255, 82, 82, 66
2023/06/06 00:06:04.391, 80, 83, 63
2023/06/06 00:06:05.511, 80, 84, 64
2023/06/06 00:06:06.647, 83, 84, 63
2023/06/06 00:06:07.766, 82, 82, 60
2023/06/06 00:06:08.903, 81, 83, 63
2023/06/06 00:06:10.023, 78, 87, 64
2023/06/06 00:06:11.159, 80, 80, 64
2023/06/06 00:06:12.279, 82, 85, 61
2023/06/06 00:06:13.415, 77, 83, 60
2023/06/06 00:06:14.535, 81, 85, 62
2023/06/06 00:06:15.671, 81, 83, 63
2023/06/06 00:06:16.791, 80, 82, 63
2023/06/06 00:06:17.926, 81, 83, 64
2023/06/06 00:06:19.046, 79, 83, 65
2023/06/06 00:06:20.182, 80, 84, 62
2023/06/06 00:06:21.302, 83, 81, 63
2023/06/06 00:06:22.438, 80, 81, 64
2023/06/06 00:06:23.558, 82, 84, 63
2023/06/06 00:06:24.694, 79, 82, 64
2023/06/06 00:06:25.814, 80, 80, 59
2023/06/06 00:06:26.950, 81, 82, 60
2023/06/06 00:06:28.070, 80, 82, 63
2023/06/06 00:06:29.206, 80, 84, 61
2023/06/06 00:06:30.326, 80, 82, 64
2023/06/06 00:06:31.462, 80, 79, 63
2023/06/06 00:06:32.582, 82, 84, 64
2023/06/06 00:06:33.717, 80, 82, 62
2023/06/06 00:06:34.838, 80, 84, 62
2023/06/06 00:06:35.974, 81, 84, 61
2023/06/06 00:06:37.093, 82, 82, 62
2023/06/06 00:06:38.229, 80, 82, 61
2023/06/06 00:06:39.349, 80, 81, 61
2023/06/06 00:06:40.485, 83, 80, 63
2023/06/06 00:06:41.605, 82, 80, 64
2023/06/06 00:06:42.741, 80, 84, 62
2023/06/06 00:06:43.861, 80, 81, 61
2023/06/06 00:06:44.997, 82, 83, 65
2023/06/06 00:06:46.117, 81, 84, 62
2023/06/06 00:06:47.253, 81, 82, 62
2023/06/06 00:06:48.373, 80, 83, 62
2023/06/06 00:06:49.508, 82, 81, 64
2023/06/06 00:06:50.629, 81, 84, 61
2023/06/06 00:06:51.765, 81, 83, 65
2023/06/06 00:06:52.885, 80, 81, 64
2023/06/06 00:06:54.020, 81, 80, 62
2023/06/06 00:06:55.140, 80, 81, 62
2023/06/06 00:06:56.276, 79, 82, 61
2023/06/06 00:06:57.396, 81, 82, 64
2023/06/06 00:06:58.532, 80, 83, 62
2023/06/06 00:06:59.652, 80, 82, 62
2023/06/06 00:07:00.788, 81, 82, 61
2023/06/06 00:07:01.908, 80, 85, 62
2023/06/06 00:07:03.044, 83, 82, 62
2023/06/06 00:07:04.164, 79, 81, 59
2023/06/06 00:07:05.300, 81, 85, 61
2023/06/06 00:07:06.420, 82, 83, 63
2023/06/06 00:07:07.556, 81, 82, 62
2023/06/06 00:07:08.676, 78, 84, 60
2023/06/06 00:07:09.811, 80, 82, 65
2023/06/06 00:07:10.931, 77, 82, 61
2023/06/06 00:07:12.067, 81, 82, 63
2023/06/06 00:07:13.187, 81, 81, 61
2023/06/06 00:07:14.323, 79, 83, 62
2023/06/06 00:07:15.443, 81, 82, 60
2023/06/06 00:07:16.579, 79, 81, 62
2023/06/06 00:07:17.699, 79, 86, 65
2023/06/06 00:07:18.835, 81, 82, 60
2023/06/06 00:07:19.955, 80, 84, 61
2023/06/06 00:07:21.091, 79, 82, 60
2023/06/06 00:07:22.211, 83, 81, 63
2023/06/06 00:07:23.347, 79, 83, 65
2023/06/06 00:07:24.467, 82, 82, 61
2023/06/06 00:07:25.602, 81, 84, 58
2023/06/06 00:07:26.722, 80, 84, 61
2023/06/06 00:07:27.858, 81, 83, 60
2023/06/06 00:07:28.978, 78, 84, 63
2023/06/06 00:07:30.114, 78, 83, 62
2023/06/06 00:07:31.234, 81, 82, 62
2023/06/06 00:07:32.370, 81, 80, 64
2023/06/06 00:07:33.490, 78, 81, 62
2023/06/06 00:07:34.626, 80, 81, 62
2023/06/06 00:07:35.746, 82, 83, 63
2023/06/06 00:07:36.882, 80, 82, 63
2023/06/06 00:07:38.002, 80, 82, 63
2023/06/06 00:07:39.138, 80, 83, 64
2023/06/06 00:07:40.258, 80, 83, 61
2023/06/06 00:07:41.394, 81, 93, 62
2023/06/06 00:07:42.513, 81, 84, 63
2023/06/06 00:07:43.649, 82, 83, 74
2023/06/06 00:07:44.769, 80, 84, 62
2023/06/06 00:07:45.905, 80, 82, 63
2023/06/06 00:07:47.025, 78, 84, 64
2023/06/06 00:07:48.161, 81, 82, 58
2023/06/06 00:07:49.280, 80, 81, 61
2023/06/06 00:07:50.417, 79, 81, 61
2023/06/06 00:07:51.537, 78, 83, 61
2023/06/06 00:07:52.673, 79, 84, 62
2023/06/06 00:07:53.792, 80, 80, 60
2023/06/06 00:07:54.929, 80, 81, 62
2023/06/06 00:07:56.048, 78, 83, 62
2023/06/06 00:07:57.184, 81, 82, 62
2023/06/06 00:07:58.304, 81, 82, 62
2023/06/06 00:07:59.440, 81, 83, 63
2023/06/06 00:08:00.560, 80, 80, 60
2023/06/06 00:08:01.696, 80, 80, 64
2023/06/06 00:08:02.816, 81, 82, 66
2023/06/06 00:08:03.952, 80, 83, 60
2023/06/06 00:08:05.072, 79, 83, 62
2023/06/06 00:08:06.208, 81, 84, 62
2023/06/06 00:08:07.328, 81, 83, 64
2023/06/06 00:08:08.464, 79, 80, 62
2023/06/06 00:08:09.584, 79, 82, 61
2023/06/06 00:08:10.719, 80, 82, 62
2023/06/06 00:08:11.840, 82, 83, 63
2023/06/06 00:08:12.975, 80, 83, 62
2023/06/06 00:08:14.096, 78, 82, 63
2023/06/06 00:08:15.231, 83, 82, 62
2023/06/06 00:08:16.351, 79, 81, 62
2023/06/06 00:08:17.487, 81, 82, 61
2023/06/06 00:08:18.607, 81, 83, 62
2023/06/06 00:08:19.743, 78, 81, 63
2023/06/06 00:08:20.863, 81, 82, 62
2023/06/06 00:08:21.999, 78, 81, 62
2023/06/06 00:08:23.119, 81, 81, 61
2023/06/06 00:08:24.255, 81, 81, 62
2023/06/06 00:08:25.375, 79, 81, 62
2023/06/06 00:08:26.510, 81, 83, 63
2023/06/06 00:08:27.631, 79, 81, 61
2023/06/06 00:08:28.766, 80, 83, 61
2023/06/06 00:08:29.886, 78, 81, 62
2023/06/06 00:08:31.022, 78, 82, 62
2023/06/06 00:08:32.142, 81, 82, 63
2023/06/06 00:08:33.278, 80, 80, 60
2023/06/06 00:08:34.398, 81, 84, 64
2023/06/06 00:08:35.533, 80, 83, 64
2023/06/06 00:08:36.654, 81, 81, 62
2023/06/06 00:08:37.790, 81, 82, 61
2023/06/06 00:08:38.910, 81, 81, 61
2023/06/06 00:08:40.046, 79, 84, 61
2023/06/06 00:08:41.166, 79, 84, 62
2023/06/06 00:08:42.301, 80, 80, 60
2023/06/06 00:08:43.421, 78, 83, 61
2023/06/06 00:08:44.557, 81, 83, 61
2023/06/06 00:08:45.678, 81, 82, 63
2023/06/06 00:08:46.813, 81, 82, 61
2023/06/06 00:08:47.933, 79, 83, 59
2023/06/06 00:08:49.069, 80, 81, 59
2023/06/06 00:08:50.189, 81, 83, 61
2023/06/06 00:08:51.325, 78, 82, 63
2023/06/06 00:08:52.444, 79, 82, 62
2023/06/06 00:08:53.581, 81, 83, 63
2023/06/06 00:08:54.701, 81, 82, 61
2023/06/06 00:08:55.837, 80, 81, 61
2023/06/06 00:08:56.957, 81, 80, 62
2023/06/06 00:08:58.093, 81, 83, 61
2023/06/06 00:08:59.213, 82, 80, 63
2023/06/06 00:09:00.349, 81, 83, 62
2023/06/06 00:09:01.468, 80, 83, 62
2023/06/06 00:09:02.604, 83, 81, 64
2023/06/06 00:09:03.724, 80, 85, 62
2023/06/06 00:09:04.860, 80, 83, 62
2023/06/06 00:09:05.980, 78, 83, 64
2023/06/06 00:09:07.116, 79, 83, 63
2023/06/06 00:09:08.236, 79, 82, 65
2023/06/06 00:09:09.372, 82, 81, 64
2023/06/06 00:09:10.492, 83, 83, 62
2023/06/06 00:09:11.628, 80, 80, 59
2023/06/06 00:09:12.748, 81, 84, 62
2023/06/06 00:09:13.884, 79, 82, 62
2023/06/06 00:09:15.003, 79, 83, 61
2023/06/06 00:09:16.140, 81, 80, 59
2023/06/06 00:09:17.259, 81, 80, 61
2023/06/06 00:09:18.395, 81, 83, 63
2023/06/06 00:09:19.515, 80, 84, 61
2023/06/06 00:09:20.651, 78, 83, 60
2023/06/06 00:09:21.770, 80, 83, 62
2023/06/06 00:09:22.907, 80, 82, 60
2023/06/06 00:09:24.027, 80, 81, 63
2023/06/06 00:09:25.163, 80, 83, 62
2023/06/06 00:09:26.283, 80, 84, 62
2023/06/06 00:09:27.419, 81, 84, 62
2023/06/06 00:09:28.539, 80, 82, 63
2023/06/06 00:09:29.675, 79, 82, 62
2023/06/06 00:09:30.795, 78, 82, 61
2023/06/06 00:09:31.931, 80, 81, 65
2023/06/06 00:09:33.051, 81, 85, 64
2023/06/06 00:09:34.187, 80, 81, 61
2023/06/06 00:09:35.306, 80, 84, 61
2023/06/06 00:09:36.442, 80, 82, 61
2023/06/06 00:09:37.562, 82, 82, 65
2023/06/06 00:09:38.698, 81, 81, 62
2023/06/06 00:09:39.818, 78, 83, 63
2023/06/06 00:09:40.954, 79, 82, 60
2023/06/06 00:09:42.074, 82, 85, 63
2023/06/06 00:09:43.210, 79, 81, 66
2023/06/06 00:09:44.330, 81, 83, 65
2023/06/06 00:09:45.466, 78, 81, 62
2023/06/06 00:09:46.586, 80, 83, 63
2023/06/06 00:09:47.722, 79, 83, 62
2023/06/06 00:09:48.842, 81, 81, 64
2023/06/06 00:09:49.978, 82, 80, 65
2023/06/06 00:09:51.098, 82, 82, 59
2023/06/06 00:09:52.233, 82, 82, 63
2023/06/06 00:09:53.353, 80, 80, 62
2023/06/06 00:09:54.489, 79, 80, 61
2023/06/06 00:09:55.609, 80, 81, 62
2023/06/06 00:09:56.744, 79, 82, 62
2023/06/06 00:09:57.865, 78, 84, 60
2023/06/06 00:09:59.001, 80, 83, 64
2023/06/06 00:10:00.121, 82, 85, 62
2023/06/06 00:10:01.257, 81, 82, 64
2023/06/06 00:10:02.377, 79, 81, 64
2023/06/06 00:10:03.512, 81, 83, 61
2023/06/06 00:10:04.633, 80, 85, 59
2023/06/06 00:10:05.768, 79, 84, 65
2023/06/06 00:10:06.888, 79, 82, 63
2023/06/06 00:10:08.024, 82, 85, 60
2023/06/06 00:10:09.144, 80, 82, 60
2023/06/06 00:10:10.280, 82, 85, 62
2023/06/06 00:10:11.400, 78, 84, 65
2023/06/06 00:10:12.535, 80, 83, 64
2023/06/06 00:10:13.656, 80, 85, 65
2023/06/06 00:10:14.792, 82, 84, 65
2023/06/06 00:10:15.912, 82, 86, 66
2023/06/06 00:10:17.048, 83, 87, 63
2023/06/06 00:10:18.168, 84, 85, 65
2023/06/06 00:10:19.303, 84, 89, 66
2023/06/06 00:10:20.424, 84, 91, 68
2023/06/06 00:10:21.560, 84, 88, 68
2023/06/06 00:10:22.679, 86, 93, 67
2023/06/06 00:10:23.815, 86, 94, 68
2023/06/06 00:10:24.935, 86, 92, 65
2023/06/06 00:10:26.071, 86, 94, 65
2023/06/06 00:10:27.191, 89, 95, 69
2023/06/06 00:10:28.327, 86, 96, 66
2023/06/06 00:10:29.446, 88, 98, 70
2023/06/06 00:10:30.583, 89, 96, 69
2023/06/06 00:10:31.703, 88, 98, 68
2023/06/06 00:10:32.839, 89, 101, 70
2023/06/06 00:10:33.959, 89, 98, 70
2023/06/06 00:10:35.095, 89, 103, 73
2023/06/06 00:10:36.215, 94, 102, 70
2023/06/06 00:10:37.351, 90, 99, 70
2023/06/06 00:10:38.470, 92, 102, 71
2023/06/06 00:10:39.607, 90, 101, 72
2023/06/06 00:10:40.743, 93, 103, 73
2023/06/06 00:10:41.862, 95, 103, 72
2023/06/06 00:10:42.998, 94, 106, 70
2023/06/06 00:10:44.118, 91, 105, 78
2023/06/06 00:10:45.254, 93, 104, 72
2023/06/06 00:10:46.374, 94, 103, 75
2023/06/06 00:10:47.510, 97, 107, 74
2023/06/06 00:10:48.630, 95, 105, 75
2023/06/06 00:10:49.766, 94, 111, 75
2023/06/06 00:10:50.902, 97, 113, 74
2023/06/06 00:10:52.022, 98, 107, 72
2023/06/06 00:10:53.158, 96, 105, 77
2023/06/06 00:10:54.277, 96, 110, 77
2023/06/06 00:10:55.413, 100, 109, 75
2023/06/06 00:10:56.533, 99, 112, 77
2023/06/06 00:10:57.669, 100, 111, 79
2023/06/06 00:10:58.804, 96, 108, 77
2023/06/06 00:10:59.925, 96, 110, 76
2023/06/06 00:11:01.061, 100, 111, 75
2023/06/06 00:11:02.181, 100, 109, 77
2023/06/06 00:11:03.317, 101, 114, 75
2023/06/06 00:11:04.437, 99, 115, 77
2023/06/06 00:11:05.573, 99, 114, 76
2023/06/06 00:11:06.709, 97, 115, 76
2023/06/06 00:11:07.829, 101, 129, 77
2023/06/06 00:11:08.965, 100, 115, 78
2023/06/06 00:11:10.084, 99, 113, 77
2023/06/06 00:11:11.220, 98, 116, 79
2023/06/06 00:11:12.340, 101, 115, 80
2023/06/06 00:11:13.477, 100, 116, 77
2023/06/06 00:11:14.612, 101, 114, 97
2023/06/06 00:11:15.732, 103, 121, 79
2023/06/06 00:11:16.868, 99, 121, 78
2023/06/06 00:11:17.988, 102, 117, 79
2023/06/06 00:11:19.124, 100, 122, 79
2023/06/06 00:11:20.260, 103, 114, 80
2023/06/06 00:11:21.380, 100, 117, 81
2023/06/06 00:11:22.515, 101, 117, 77
2023/06/06 00:11:23.636, 105, 118, 80
2023/06/06 00:11:24.772, 100, 118, 80
2023/06/06 00:11:25.907, 102, 118, 83
2023/06/06 00:11:27.027, 103, 117, 82
2023/06/06 00:11:28.163, 102, 118, 82
2023/06/06 00:11:29.283, 103, 118, 81
2023/06/06 00:11:30.419, 102, 119, 85
2023/06/06 00:11:31.555, 105, 119, 81
2023/06/06 00:11:32.675, 104, 121, 81
2023/06/06 00:11:33.811, 102, 122, 79
2023/06/06 00:11:34.930, 101, 122, 79
2023/06/06 00:11:36.067, 102, 122, 82
2023/06/06 00:11:37.203, 105, 126, 83
2023/06/06 00:11:38.323, 106, 121, 80
2023/06/06 00:11:39.459, 104, 141, 81
2023/06/06 00:11:40.579, 107, 123, 80
2023/06/06 00:11:41.714, 105, 120, 83
2023/06/06 00:11:42.851, 106, 121, 84
2023/06/06 00:11:43.970, 106, 123, 84
2023/06/06 00:11:45.107, 105, 122, 82
2023/06/06 00:11:46.226, 104, 123, 80
2023/06/06 00:11:47.362, 104, 125, 85
2023/06/06 00:11:48.498, 109, 127, 81
2023/06/06 00:11:49.618, 108, 128, 85
2023/06/06 00:11:50.754, 104, 123, 85
2023/06/06 00:11:51.874, 106, 126, 83
2023/06/06 00:11:53.010, 107, 124, 84
2023/06/06 00:11:54.146, 104, 123, 82
2023/06/06 00:11:55.265, 106, 128, 83
2023/06/06 00:11:56.402, 114, 128, 82
2023/06/06 00:11:57.522, 103, 124, 85
2023/06/06 00:11:58.658, 110, 123, 84
2023/06/06 00:11:59.793, 107, 124, 83